Location: Karcze
(52.0945°N, 22.4786°E)
Time: 12:10:20
(UTC+00:00)

Cosmos 1536 - Pass Details

Date: 14 July 2020
Orbit: 539 x 560 km, 82.5° (Epoch: 07 August)

Event Time Altitude Azimuth Distance (km) Brightness Sun altitude
Exits shadow 00:27:19 10° 162° (SSE) 1,860 5.1 -12.4°
Reaches altitude 10° 00:27:22 10° 161° (SSE) 1,843 5.1 -12.4°
Maximum altitude 00:31:08 39° 93° (E) 850 4.0 -12.1°
Drops below altitude 10° 00:34:56 10° 24° (NNE) 1,849 7.1 -11.8°
Sets 00:37:12 0° 17° (NNE) 2,746 8.2 -11.7°
